Preview of NWS' New Version of Forecast
This preview is not operational and should not be used for support decisions.

Regional Weather Roundup (RWR)

Issued by Guam, GU (GUM)

                            
000
ASGM40 PGUM 170510
RWRGUM
WEATHER ROUNDUP FOR THE MARIANAS
NATIONAL WEATHER SERVICE TIYAN GU
300 PM CHST MON DEC 17 2018

GUZ001>004-170600-
MARIANA ISLANDS-
  
CITY           SKY/WX    TMP DP  RH WIND       PRES   REMARKS
GUAM AIRPORT   LGT RAIN  82  81  94 E14G20    29.79S HX  95           
ANDERSEN AFB   CLOUDY    82  79  89 E18       29.80  HX  93           
ROTA AIRPORT   PTSUNNY   81  73  78 E16       29.79F                  
TINIAN AP      PTSUNNY  N/A N/A N/A MISG      29.79F                  
SAIPAN AP      CLOUDY    84  77  79 E16       29.80F HX  94           

$$